Miscellaneous Local Product
Issued by NWS North Platte, NE

Home | Current Version | Previous Version | Graphics & Text | Print | Product List | Glossary On
Versions: 1 2 3 4 5 6 7 8 9 10 11 12 13 14 15 16 17 18 19 20 21 22 23 24 25 26 27 28 29 30 31 32 33 34 35 36 37 38 39 40 41 42 43 44 45 46 47 48 49 50
000
AXUS43 KLBF 021210
MISLBF


WESTERN AND NORTH CENTRAL NEBRASKA HOURLY WEATHER ROUNDUP
NATIONAL WEATHER SERVICE NORTH PLATTE NE
600 AM CST FRI DEC 02 2016

NOTE: "FAIR" INDICATES FEW OR NO CLOUDS BELOW 12,000 FEET WITH NO
SIGNIFICANT WEATHER AND/OR OBSTRUCTIONS TO VISIBILITY.

NOTE: STATIONS NOT REPORTING VARIABLES SUCH AS SKY/WEATHER OR
PRESSURE ARE PROVIDED BY RAWS AND APRS NETWORKS AND ARE NOT UNDER
NATIONAL WEATHER SERVICE QUALITY CONTROL.

...OBSERVATIONS IN AND NEAR THE EASTERN PANHANDLE OF NEBRASKA...

CITY           SKY/WX    TMP DP  RH WIND       PRES   REMARKS
PINE RIDGE     MOCLDY    11   9  92 CALM      30.13R
CHADRON        CLOUDY    24  20  84 SW7       30.14R WCI  16
ALLIANCE       PTCLDY    12   8  84 W7        30.12R WCI   1
SIDNEY         CLEAR     15  12  88 NW10      30.12R WCI   2
CRESCENT LAKE    N/A     22  17  82 NW6         N/A  WCI  15
$$

...OBSERVATIONS IN NORTHERN NEBRASKA AND FAR SOUTHERN SOUTH DAKOTA...

CITY           SKY/WX    TMP DP  RH WIND       PRES   REMARKS
WINNER         CLOUDY    29  26  89 W5        30.18R WCI  24
VALENTINE      CLOUDY    22  19  89 SW3       30.16R
THEDFORD       CLOUDY    27  24  91 CALM      30.15R
AINSWORTH      CLOUDY    22  21  96 W3        30.16R
O`NEILL        CLOUDY    27  26  94 NW6       30.17S WCI  21
ORD            CLOUDY    24  20  84 CALM      30.17R
BROKEN BOW     CLOUDY    27  25  92 CALM      30.14R
VALENTINE NWR    N/A     24  22  90 CALM        N/A
BUTTE            N/A     28  26  94 NW3         N/A
HALSEY           N/A     25  22  88 CALM        N/A
CHAMBERS         N/A     22  19  88 CALM        N/A
EWING            N/A     23  22  94 NW3         N/A
$$

...OBSERVATIONS IN SOUTHWEST NEBRASKA AND FAR NORTHEAST COLORADO...

CITY           SKY/WX    TMP DP  RH WIND       PRES   REMARKS
WRAY           CLOUDY    21  18  86 W5        30.14R WCI  15
HOLYOKE        FAIR      21  18  86 NW7       30.13S WCI  13
IMPERIAL       CLEAR     18  12  77 W6        30.14R WCI  10
OGALLALA       CLEAR     15  12  89 SW8       30.14S WCI   3
NORTH PLATTE   CLEAR     14  11  87 NW3       30.15R
MCCOOK         CLEAR     18  12  77 W8        30.16R WCI   8
LEXINGTON      CLEAR     17  14  88 CALM      30.16R
STAPLETON        N/A     22  19  88 CALM        N/A
GOTHENBURG       N/A     19  15  83 W3          N/A
CALLAWAY         N/A     22  20  91 CALM        N/A
$$

...OBSERVATIONS IN CENTRAL LINCOLN COUNTY AREA...

CITY           SKY/WX    TMP DP  RH WIND       PRES   REMARKS
N.P. AIRPORT   CLEAR     14  11  87 NW3       30.15R
N.P. DOWNTOWN    N/A     17  13  86 CALM        N/A
N.P. SOUTHEAST   N/A     18  13  80 CALM        N/A
N.P. HILLCREST   N/A     18  14  85 CALM        N/A
$$

...SOME OBSERVATIONS FROM AROUND THE REGION...

CITY           SKY/WX    TMP DP  RH WIND       PRES   REMARKS
LARAMIE        CLOUDY    14  10  84 NE6       30.04R WCI   5
CHEYENNE       CLOUDY    24  15  68 NW8       30.07S WCI  15
DENVER         CLOUDY    22  11  62 SE8       30.08R WCI  12
AKRON          CLOUDY    24  16  71 NW5       30.10S WCI  18
SCOTTSBLUFF    PTCLDY    16  11  80 N6        30.15R WCI   7
RAPID CITY     MOCLDY    23  19  85 N3        30.11R
BISMARCK       CLOUDY    25  21  85 CALM      30.20R
PIERRE         CLOUDY    28  26  92 CALM      30.17R
SIOUX FALLS    CLOUDY    31  30  96 NE7       30.17R WCI  24
OMAHA          CLOUDY    30  25  81 NW5       30.20R WCI  25
GRAND ISLAND   CLOUDY    20  18  92 NW5       30.17R WCI  13
KANSAS CITY    CLEAR     28  22  78 SW3       30.19R
WICHITA        PTCLDY    34  25  69 NE7       30.15R WCI  28
OKLAHOMA CITY  PTCLDY    33  27  78 NW10      30.09R WCI  25
DALLAS         MOCLDY    45  36  70 SE7       30.08S
AMARILLO       CLOUDY    27  19  72 NE9       30.06S WCI  18
DODGE CITY     CLOUDY    20  12  71 NW7       30.14R WCI  11
HAYS           CLEAR     18  12  77 W6        30.16R WCI  10
GOODLAND       CLEAR     16   8  71 NW6       30.12S WCI   7
$$




USA.gov is the U.S. government's official web portal to all federal, state and local government web resources and services.